Location: *
(43.9905°S, 176.4941°W)
Time: 04:36:24
(UTC+00:00)

Cosmos 468 Rocket - Pass Details

Date: 08 December 2019
Orbit: 744 x 780 km, 74.0° (Epoch: 17 January)

Event Time Altitude Azimuth Distance (km) Brightness Sun altitude
Exits shadow 09:35:42 31° 29° (NNE) 1,345 4.7 -17.7°
Maximum altitude 09:37:39 44° 77° (ENE) 1,081 4.5 -17.9°
Drops below altitude 10° 09:42:45 10° 147° (SSE) 2,368 6.9 -18.3°
Sets 09:45:15 0° 153° (SSE) 3,303 7.8 -18.5°
